| time (UTC) | temp F | wind direction | speed knots | gust knots | rain 1hr in | rain 24hr in | rain mn in | humidity % | barometer mb |
| 20260506224503 | 48 | 314 | 0.0 | 1.7 | 0.00 | 0.46 | 0.00 | 90 | 1012.0 |
| 20260506224218 | 48 | 318 | 0.0 | 2.6 | 0.00 | 0.46 | 0.00 | 90 | 1011.9 |
| 20260506223503 | 48 | 48 | 0.9 | 2.6 | 0.00 | 0.47 | 0.00 | 90 | 1012.0 |
| 20260506223003 | 48 | 77 | 0.9 | 2.6 | 0.00 | 0.48 | 0.00 | 90 | 1011.9 |
| 20260506222503 | 48 | 76 | 0.9 | 2.6 | 0.00 | 0.49 | 0.00 | 90 | 1011.8 |
| 20260506222003 | 48 | 64 | 0.9 | 2.6 | 0.00 | 0.50 | 0.00 | 90 | 1011.8 |
| 20260506221504 | 48 | 49 | 0.9 | 2.6 | 0.00 | 0.50 | 0.00 | 90 | 1011.8 |
| 20260506221217 | 48 | 48 | 0.9 | 1.7 | 0.00 | 0.51 | 0.00 | 90 | 1011.8 |
| 20260506220508 | 48 | 69 | 0.0 | 1.7 | 0.00 | 0.52 | 0.00 | 90 | 1011.7 |
| 20260506220004 | 48 | 69 | 0.9 | 3.5 | 0.00 | 0.53 | 0.00 | 90 | 1011.8 |
| 20260506215503 | 48 | 71 | 0.0 | 3.5 | 0.00 | 0.55 | 0.53 | 90 | 1011.7 |
| 20260506215004 | 48 | 74 | 0.0 | 1.7 | 0.00 | 0.57 | 0.53 | 90 | 1011.7 |
| 20260506214503 | 48 | 69 | 0.9 | 1.7 | 0.00 | 0.58 | 0.53 | 90 | 1011.6 |
| 20260506214003 | 48 | 67 | 0.9 | 3.5 | 0.00 | 0.59 | 0.53 | 90 | 1011.6 |
| 20260506213503 | 48 | 78 | 0.9 | 3.5 | 0.00 | 0.60 | 0.53 | 90 | 1011.6 |
| 20260506213003 | 48 | 87 | 0.0 | 2.6 | 0.00 | 0.60 | 0.53 | 90 | 1011.6 |
| 20260506212503 | 48 | 78 | 0.9 | 2.6 | 0.00 | 0.61 | 0.53 | 90 | 1011.6 |
| 20260506212003 | 48 | 66 | 0.9 | 1.7 | 0.00 | 0.64 | 0.53 | 90 | 1011.6 |
| 20260506211503 | 48 | 61 | 0.9 | 2.6 | 0.00 | 0.65 | 0.53 | 90 | 1011.6 |
| 20260506211003 | 48 | 63 | 0.9 | 2.6 | 0.00 | 0.67 | 0.53 | 90 | 1011.5 |
| 20260506210503 | 48 | 68 | 0.0 | 1.7 | 0.00 | 0.68 | 0.53 | 90 | 1011.4 |
| 20260506210004 | 48 | 69 | 0.0 | 0.9 | 0.00 | 0.69 | 0.53 | 90 | 1011.3 |
| 20260506205503 | 48 | 63 | 0.9 | 2.6 | 0.00 | 0.70 | 0.53 | 89 | 1011.4 |
| 20260506205217 | 48 | 66 | 0.9 | 2.6 | 0.00 | 0.70 | 0.53 | 89 | 1011.4 |
| 20260506204503 | 49 | 77 | 0.9 | 2.6 | 0.00 | 0.72 | 0.53 | 88 | 1011.2 |
| 20260506204003 | 49 | 68 | 0.9 | 5.2 | 0.00 | 0.72 | 0.53 | 88 | 1011.2 |
| 20260506203503 | 49 | 59 | 1.7 | 5.2 | 0.00 | 0.73 | 0.53 | 87 | 1011.1 |
| 20260506203003 | 49 | 57 | 1.7 | 4.3 | 0.00 | 0.75 | 0.53 | 86 | 1011.1 |
| 20260506202503 | 49 | 62 | 1.7 | 7.0 | 0.00 | 0.76 | 0.53 | 86 | 1011.1 |
| 20260506202004 | 50 | 64 | 0.9 | 7.0 | 0.00 | 0.76 | 0.53 | 85 | 1011.1 |
| 20260506201503 | 50 | 62 | 0.9 | 3.5 | 0.00 | 0.78 | 0.53 | 84 | 1011.2 |
| 20260506201217 | 50 | 62 | 0.9 | 3.5 | 0.00 | 0.78 | 0.53 | 84 | 1011.1 |
| 20260506200503 | 50 | 81 | 0.9 | 2.6 | 0.00 | 0.80 | 0.53 | 84 | 1011.1 |
| 20260506200003 | 50 | 66 | 0.9 | 4.3 | 0.00 | 0.80 | 0.53 | 83 | 1011.1 |
| 20260506195503 | 50 | 55 | 0.9 | 4.3 | 0.00 | 0.81 | 0.53 | 83 | 1011.0 |
| 20260506195003 | 50 | 59 | 0.9 | 3.5 | 0.00 | 0.82 | 0.53 | 83 | 1010.9 |
| 20260506194718 | 50 | 59 | 0.9 | 3.5 | 0.00 | 0.82 | 0.53 | 83 | 1010.9 |
| 20260506194008 | 50 | 75 | 0.9 | 3.5 | 0.00 | 0.83 | 0.53 | 82 | 1010.9 |
| 20260506193504 | 50 | 77 | 0.9 | 2.6 | 0.00 | 0.84 | 0.53 | 82 | 1010.8 |
| 20260506193004 | 50 | 68 | 0.0 | 1.7 | 0.00 | 0.85 | 0.53 | 82 | 1010.8 |
| 20260506192503 | 50 | 64 | 0.9 | 2.6 | 0.00 | 0.85 | 0.53 | 82 | 1010.7 |
| 20260506192003 | 50 | 66 | 0.9 | 2.6 | 0.00 | 0.86 | 0.53 | 81 | 1010.5 |
| 20260506191503 | 50 | 65 | 0.9 | 2.6 | 0.00 | 0.87 | 0.53 | 81 | 1010.5 |
| 20260506191218 | 50 | 65 | 0.9 | 2.6 | 0.00 | 0.87 | 0.53 | 81 | 1010.5 |
| 20260506190503 | 50 | 73 | 0.9 | 2.6 | 0.00 | 0.88 | 0.53 | 80 | 1010.3 |
| 20260506190004 | 50 | 77 | 0.9 | 1.7 | 0.00 | 0.89 | 0.53 | 80 | 1010.3 |
| 20260506185503 | 50 | 80 | 0.9 | 1.7 | 0.00 | 0.90 | 0.53 | 79 | 1010.2 |
| 20260506185003 | 50 | 70 | 0.9 | 4.3 | 0.00 | 0.91 | 0.53 | 78 | 1010.2 |
| 20260506184509 | 51 | 76 | 1.7 | 4.3 | 0.00 | 0.91 | 0.53 | 78 | 1010.2 |
| 20260506184003 | 51 | 81 | 1.7 | 4.3 | 0.00 | 0.91 | 0.53 | 77 | 1010.2 |
| 20260506183504 | 52 | 74 | 1.7 | 4.3 | 0.00 | 0.92 | 0.53 | 77 | 1010.1 |
| 20260506183003 | 52 | 73 | 1.7 | 4.3 | 0.00 | 0.92 | 0.53 | 76 | 1010.0 |
| 20260506182503 | 52 | 74 | 0.9 | 3.5 | 0.00 | 0.92 | 0.53 | 75 | 1010.0 |
| 20260506182003 | 52 | 79 | 0.9 | 3.5 | 0.00 | 0.92 | 0.53 | 75 | 1009.9 |
| 20260506181503 | 53 | 73 | 0.9 | 3.5 | 0.00 | 0.93 | 0.53 | 74 | 1009.8 |
| 20260506181003 | 53 | 65 | 1.7 | 3.5 | 0.00 | 0.93 | 0.53 | 72 | 1009.8 |
| 20260506180503 | 53 | 66 | 1.7 | 5.2 | 0.00 | 0.93 | 0.53 | 72 | 1009.7 |
| 20260506180004 | 54 | 70 | 0.9 | 5.2 | 0.00 | 0.93 | 0.53 | 72 | 1009.6 |
| 20260506175503 | 54 | 69 | 1.7 | 6.1 | 0.00 | 0.94 | 0.53 | 72 | 1009.5 |
| 20260506175218 | 54 | 66 | 1.7 | 6.1 | 0.00 | 0.94 | 0.53 | 71 | 1009.3 |
| 20260506174717 | 54 | 69 | 1.7 | 6.1 | 0.00 | 0.94 | 0.53 | 72 | 1009.3 |
| 20260506174003 | 54 | 61 | 1.7 | 6.1 | 0.00 | 0.94 | 0.53 | 73 | 1009.2 |
| 20260506173504 | 54 | 61 | 1.7 | 6.1 | 0.00 | 0.94 | 0.53 | 72 | 1009.2 |
| 20260506173003 | 55 | 65 | 1.7 | 6.1 | 0.00 | 0.94 | 0.53 | 72 | 1009.1 |
| 20260506172503 | 55 | 68 | 1.7 | 6.1 | 0.00 | 0.94 | 0.53 | 72 | 1009.2 |
| 20260506172218 | 55 | 72 | 1.7 | 6.1 | 0.00 | 0.94 | 0.53 | 73 | 1009.2 |
| 20260506171503 | 55 | 71 | 0.9 | 3.5 | 0.00 | 0.94 | 0.53 | 74 | 1009.1 |
| 20260506171003 | 55 | 73 | 0.9 | 2.6 | 0.00 | 0.94 | 0.53 | 75 | 1009.1 |
| 20260506170503 | 55 | 79 | 0.9 | 3.5 | 0.00 | 0.94 | 0.53 | 75 | 1009.1 |
| 20260506170003 | 55 | 83 | 0.9 | 3.5 | 0.00 | 0.94 | 0.53 | 75 | 1009.0 |
| 20260506165503 | 55 | 73 | 0.9 | 2.6 | 0.00 | 0.94 | 0.53 | 75 | 1009.0 |
| 20260506165004 | 55 | 58 | 0.9 | 2.6 | 0.00 | 0.94 | 0.53 | 75 | 1008.9 |
| 20260506164503 | 55 | 70 | 0.9 | 2.6 | 0.00 | 0.94 | 0.53 | 74 | 1008.9 |
| 20260506164003 | 55 | 81 | 1.7 | 6.1 | 0.00 | 0.94 | 0.53 | 73 | 1008.8 |
| 20260506163503 | 55 | 78 | 1.7 | 6.1 | 0.00 | 0.94 | 0.53 | 73 | 1008.8 |
| 20260506163217 | 55 | 84 | 1.7 | 6.1 | 0.00 | 0.94 | 0.53 | 73 | 1008.8 |
| 20260506162503 | 56 | 99 | 0.9 | 3.5 | 0.00 | 0.94 | 0.53 | 73 | 1008.8 |
| 20260506162003 | 56 | 87 | 1.7 | 4.3 | 0.00 | 0.94 | 0.53 | 72 | 1008.8 |
| 20260506161503 | 56 | 80 | 1.7 | 4.3 | 0.00 | 0.94 | 0.53 | 71 | 1008.8 |
| 20260506161003 | 56 | 76 | 1.7 | 7.0 | 0.00 | 0.94 | 0.53 | 71 | 1008.7 |
| 20260506160503 | 57 | 78 | 1.7 | 7.0 | 0.00 | 0.94 | 0.53 | 71 | 1008.8 |
| 20260506160004 | 57 | 102 | 1.7 | 5.2 | 0.00 | 0.94 | 0.53 | 71 | 1008.7 |
| 20260506155504 | 57 | 99 | 1.7 | 5.2 | 0.00 | 0.94 | 0.53 | 73 | 1008.7 |
| 20260506155003 | 57 | 85 | 2.6 | 5.2 | 0.00 | 0.94 | 0.53 | 73 | 1008.6 |
| 20260506154503 | 57 | 86 | 1.7 | 5.2 | 0.00 | 0.94 | 0.53 | 73 | 1008.6 |
| 20260506154003 | 56 | 87 | 1.7 | 3.5 | 0.00 | 0.94 | 0.53 | 74 | 1008.7 |
| 20260506153503 | 56 | 81 | 1.7 | 5.2 | 0.00 | 0.94 | 0.53 | 75 | 1008.6 |
| 20260506153003 | 56 | 75 | 0.9 | 5.2 | 0.00 | 0.94 | 0.53 | 74 | 1008.6 |
| 20260506152718 | 56 | 76 | 0.9 | 5.2 | 0.00 | 0.94 | 0.53 | 74 | 1008.7 |
| 20260506152003 | 56 | 81 | 1.7 | 3.5 | 0.00 | 0.94 | 0.53 | 70 | 1008.6 |
| 20260506151503 | 56 | 67 | 1.7 | 6.1 | 0.00 | 0.94 | 0.53 | 69 | 1008.6 |
| 20260506151217 | 57 | 58 | 1.7 | 6.1 | 0.00 | 0.94 | 0.53 | 69 | 1008.6 |
| 20260506150503 | 57 | 63 | 1.7 | 4.3 | 0.00 | 0.94 | 0.53 | 70 | 1008.5 |
| 20260506150004 | 57 | 57 | 1.7 | 4.3 | 0.00 | 0.94 | 0.53 | 71 | 1008.5 |
| 20260506145503 | 57 | 59 | 1.7 | 4.3 | 0.00 | 0.94 | 0.53 | 70 | 1008.4 |
| 20260506145003 | 57 | 69 | 0.9 | 3.5 | 0.00 | 0.94 | 0.53 | 72 | 1008.4 |
| 20260506144503 | 57 | 57 | 0.9 | 2.6 | 0.00 | 0.94 | 0.53 | 71 | 1008.4 |
| 20260506144217 | 57 | 55 | 0.9 | 3.5 | 0.00 | 0.94 | 0.53 | 73 | 1008.4 |
| 20260506143503 | 57 | 66 | 0.9 | 3.5 | 0.00 | 0.94 | 0.53 | 74 | 1008.6 |
| 20260506143003 | 57 | 69 | 1.7 | 4.3 | 0.00 | 0.94 | 0.53 | 73 | 1008.6 |
| 20260506142503 | 57 | 72 | 2.6 | 6.1 | 0.00 | 0.94 | 0.53 | 71 | 1008.6 |
| 20260506142004 | 57 | 50 | 2.6 | 7.8 | 0.00 | 0.94 | 0.53 | 70 | 1008.6 |
| 20260506141503 | 58 | 352 | 1.7 | 7.8 | 0.00 | 0.94 | 0.53 | 71 | 1008.6 |
| 20260506141218 | 58 | 349 | 1.7 | 4.3 | 0.00 | 0.94 | 0.53 | 71 | 1008.6 |
| 20260506140503 | 58 | 16 | 1.7 | 4.3 | 0.00 | 0.94 | 0.53 | 73 | 1008.7 |
| 20260506140003 | 58 | 16 | 1.7 | 3.5 | 0.00 | 0.94 | 0.53 | 75 | 1008.7 |
| 20260506135717 | 58 | 350 | 1.7 | 3.5 | 0.00 | 0.94 | 0.53 | 75 | 1008.6 |
| 20260506135218 | 57 | 314 | 1.7 | 4.3 | 0.00 | 0.94 | 0.53 | 75 | 1008.6 |
| 20260506134503 | 56 | 311 | 1.7 | 7.0 | 0.00 | 0.94 | 0.53 | 77 | 1008.5 |
| 20260506134003 | 56 | 50 | 0.9 | 5.2 | 0.00 | 0.94 | 0.53 | 77 | 1008.6 |
| 20260506133503 | 56 | 44 | 1.7 | 5.2 | 0.00 | 0.94 | 0.53 | 76 | 1008.5 |
| 20260506133003 | 56 | 360 | 1.7 | 6.1 | 0.00 | 0.94 | 0.53 | 77 | 1008.6 |
| 20260506132503 | 57 | 12 | 1.7 | 6.1 | 0.00 | 0.94 | 0.53 | 76 | 1008.6 |
| 20260506132003 | 57 | 49 | 1.7 | 5.2 | 0.00 | 0.94 | 0.53 | 77 | 1008.5 |
| 20260506131503 | 56 | 54 | 1.7 | 5.2 | 0.00 | 0.94 | 0.53 | 77 | 1008.5 |
| 20260506131003 | 55 | 344 | 1.7 | 3.5 | 0.00 | 0.94 | 0.53 | 80 | 1008.6 |
| 20260506130503 | 55 | 350 | 1.7 | 6.1 | 0.00 | 0.94 | 0.53 | 80 | 1008.6 |
| 20260506130003 | 55 | 36 | 0.9 | 6.1 | 0.00 | 0.94 | 0.53 | 81 | 1008.6 |
| 20260506125503 | 54 | 58 | 1.7 | 7.0 | 0.00 | 0.94 | 0.53 | 83 | 1008.5 |
| 20260506125003 | 54 | 74 | 1.7 | 7.0 | 0.00 | 0.94 | 0.53 | 83 | 1008.5 |
| 20260506124503 | 54 | 75 | 0.9 | 3.5 | 0.00 | 0.94 | 0.53 | 86 | 1008.5 |
| 20260506124003 | 54 | 67 | 1.7 | 3.5 | 0.00 | 0.94 | 0.53 | 85 | 1008.4 |
| 20260506123508 | 54 | 63 | 0.9 | 3.5 | 0.00 | 0.94 | 0.53 | 85 | 1008.4 |
| 20260506123004 | 54 | 36 | 0.9 | 3.5 | 0.00 | 0.94 | 0.53 | 84 | 1008.4 |
| 20260506122503 | 54 | 360 | 0.9 | 2.6 | 0.00 | 0.94 | 0.53 | 84 | 1008.3 |
| 20260506122218 | 54 | 7 | 0.0 | 2.6 | 0.00 | 0.94 | 0.53 | 85 | 1008.3 |
| 20260506121717 | 55 | 58 | 0.9 | 6.1 | 0.00 | 0.94 | 0.53 | 84 | 1008.3 |
| 20260506121003 | 55 | 62 | 0.9 | 6.1 | 0.00 | 0.94 | 0.53 | 84 | 1008.3 |
| 20260506120503 | 54 | 71 | 1.7 | 3.5 | 0.00 | 0.94 | 0.53 | 85 | 1008.2 |
| 20260506120003 | 54 | 65 | 0.9 | 3.5 | 0.00 | 0.94 | 0.53 | 86 | 1008.2 |
| 20260506115503 | 54 | 355 | 0.0 | 2.6 | 0.00 | 0.94 | 0.53 | 88 | 1008.3 |
| 20260506115003 | 53 | 84 | 0.0 | 2.6 | 0.00 | 0.94 | 0.53 | 87 | 1008.2 |
| 20260506114503 | 53 | 343 | 0.9 | 2.6 | 0.00 | 0.94 | 0.53 | 86 | 1008.2 |
| 20260506114218 | 53 | 357 | 0.9 | 2.6 | 0.00 | 0.94 | 0.53 | 85 | 1008.2 |
| 20260506113503 | 54 | 36 | 0.9 | 2.6 | 0.00 | 0.94 | 0.53 | 86 | 1008.2 |
| 20260506113003 | 54 | 37 | 0.9 | 2.6 | 0.00 | 0.94 | 0.53 | 85 | 1008.1 |
| 20260506112503 | 54 | 70 | 1.7 | 3.5 | 0.00 | 0.94 | 0.53 | 85 | 1008.2 |
| 20260506112003 | 54 | 82 | 1.7 | 4.3 | 0.00 | 0.94 | 0.53 | 84 | 1008.2 |
| 20260506111503 | 54 | 83 | 1.7 | 4.3 | 0.00 | 0.94 | 0.53 | 85 | 1008.3 |
| 20260506111003 | 54 | 75 | 1.7 | 6.1 | 0.00 | 0.94 | 0.53 | 88 | 1008.3 |
| 20260506110503 | 53 | 50 | 1.7 | 6.1 | 0.00 | 0.94 | 0.53 | 89 | 1008.3 |
| 20260506110003 | 53 | 349 | 1.7 | 6.1 | 0.00 | 0.94 | 0.53 | 90 | 1008.4 |
| 20260506105718 | 52 | 320 | 1.7 | 4.3 | 0.00 | 0.94 | 0.53 | 91 | 1008.4 |
| 20260506105003 | 52 | 2 | 1.7 | 4.3 | 0.00 | 0.94 | 0.53 | 92 | 1008.5 |
| 20260506104503 | 52 | 59 | 1.7 | 6.1 | 0.00 | 0.94 | 0.53 | 92 | 1008.4 |
| 20260506104003 | 52 | 62 | 1.7 | 6.1 | 0.00 | 0.94 | 0.53 | 92 | 1008.4 |
| 20260506103503 | 52 | 63 | 0.9 | 4.3 | 0.00 | 0.94 | 0.53 | 94 | 1008.4 |
| 20260506103003 | 52 | 25 | 1.7 | 4.3 | 0.00 | 0.94 | 0.53 | 94 | 1008.4 |
| 20260506102503 | 51 | 347 | 1.7 | 3.5 | 0.00 | 0.94 | 0.53 | 94 | 1008.4 |
| 20260506102003 | 51 | 62 | 1.7 | 3.5 | 0.00 | 0.94 | 0.53 | 94 | 1008.4 |
| 20260506101718 | 51 | 67 | 1.7 | 4.3 | 0.00 | 0.94 | 0.53 | 94 | 1008.4 |
| 20260506101003 | 51 | 348 | 1.7 | 4.3 | 0.00 | 0.94 | 0.53 | 95 | 1008.3 |
| 20260506100503 | 51 | 7 | 1.7 | 5.2 | 0.00 | 0.94 | 0.53 | 95 | 1008.2 |
| 20260506100003 | 50 | 59 | 1.7 | 5.2 | 0.00 | 0.94 | 0.53 | 95 | 1008.2 |
| 20260506095503 | 50 | 59 | 1.7 | 3.5 | 0.00 | 0.94 | 0.53 | 96 | 1008.2 |
| 20260506095003 | 50 | 64 | 1.7 | 7.8 | 0.00 | 0.94 | 0.53 | 96 | 1008.2 |
| 20260506094503 | 50 | 60 | 1.7 | 7.8 | 0.00 | 0.94 | 0.53 | 96 | 1008.3 |
| 20260506094003 | 50 | 44 | 1.7 | 4.3 | 0.01 | 0.94 | 0.53 | 96 | 1008.1 |
| 20260506093503 | 49 | 60 | 1.7 | 6.1 | 0.01 | 0.94 | 0.53 | 97 | 1008.1 |
| 20260506093003 | 49 | 74 | 1.7 | 6.1 | 0.01 | 0.94 | 0.53 | 97 | 1008.1 |
| 20260506092503 | 49 | 73 | 1.7 | 5.2 | 0.01 | 0.94 | 0.53 | 97 | 1008.0 |
| 20260506092004 | 49 | 66 | 1.7 | 3.5 | 0.01 | 0.94 | 0.53 | 97 | 1008.0 |
| 20260506091503 | 48 | 63 | 1.7 | 3.5 | 0.01 | 0.94 | 0.53 | 97 | 1008.0 |
| 20260506091219 | 48 | 47 | 0.9 | 3.5 | 0.01 | 0.94 | 0.53 | 97 | 1008.0 |
| 20260506090503 | 48 | 58 | 1.7 | 8.7 | 0.01 | 0.94 | 0.53 | 97 | 1007.9 |
| 20260506090003 | 48 | 48 | 1.7 | 8.7 | 0.02 | 0.94 | 0.53 | 97 | 1007.9 |
| 20260506085503 | 48 | 44 | 1.7 | 4.3 | 0.02 | 0.94 | 0.53 | 97 | 1007.9 |
| 20260506085003 | 48 | 70 | 1.7 | 7.0 | 0.02 | 0.94 | 0.53 | 97 | 1007.8 |
| 20260506084503 | 48 | 73 | 1.7 | 7.0 | 0.02 | 0.95 | 0.53 | 97 | 1007.7 |
| 20260506084003 | 48 | 68 | 1.7 | 5.2 | 0.02 | 0.94 | 0.52 | 97 | 1007.8 |
| 20260506083503 | 48 | 56 | 1.7 | 5.2 | 0.02 | 0.94 | 0.52 | 97 | 1007.7 |
| 20260506083003 | 48 | 57 | 1.7 | 7.0 | 0.02 | 0.94 | 0.52 | 97 | 1007.7 |
| 20260506082504 | 48 | 76 | 1.7 | 7.0 | 0.03 | 0.94 | 0.52 | 97 | 1007.6 |
| 20260506082003 | 48 | 78 | 2.6 | 4.3 | 0.03 | 0.94 | 0.52 | 97 | 1007.6 |
| 20260506081503 | 48 | 71 | 2.6 | 7.0 | 0.03 | 0.94 | 0.52 | 97 | 1007.6 |
| 20260506081218 | 48 | 67 | 2.6 | 7.0 | 0.03 | 0.94 | 0.52 | 97 | 1007.5 |
| 20260506080503 | 48 | 70 | 2.6 | 6.1 | 0.04 | 0.94 | 0.52 | 97 | 1007.6 |
| 20260506073503 | 48 | 65 | 1.7 | 7.0 | 0.04 | 0.92 | 0.50 | 97 | 1007.4 |
| 20260506073003 | 48 | 19 | 0.9 | 2.6 | 0.04 | 0.92 | 0.50 | 97 | 1007.4 |
| 20260506072508 | 48 | 17 | 1.7 | 7.0 | 0.04 | 0.91 | 0.49 | 97 | 1007.3 |
| 20260506072003 | 48 | 341 | 1.7 | 7.0 | 0.04 | 0.91 | 0.49 | 97 | 1007.3 |
| 20260506071503 | 48 | 319 | 1.7 | 7.0 | 0.05 | 0.91 | 0.49 | 97 | 1007.3 |
| 20260506071003 | 48 | 356 | 1.7 | 4.3 | 0.05 | 0.91 | 0.49 | 97 | 1007.3 |
| 20260506070503 | 47 | 349 | 1.7 | 6.1 | 0.04 | 0.91 | 0.48 | 97 | 1007.3 |
| 20260506062503 | 47 | 337 | 0.9 | 3.5 | 0.03 | 0.87 | 0.45 | 97 | 1006.9 |
| 20260506062003 | 47 | 4 | 0.9 | 3.5 | 0.03 | 0.88 | 0.45 | 97 | 1006.9 |
| 20260506061503 | 47 | 21 | 0.9 | 3.5 | 0.02 | 0.87 | 0.44 | 97 | 1006.8 |
| 20260506061003 | 47 | 326 | 0.9 | 4.3 | 0.02 | 0.88 | 0.44 | 97 | 1006.9 |
| 20260506060508 | 47 | 322 | 0.9 | 4.3 | 0.02 | 0.88 | 0.44 | 97 | 1006.9 |
| 20260506051003 | 47 | 344 | 0.9 | 4.3 | 0.03 | 0.87 | 0.42 | 97 | 1006.9 |
| 20260506050503 | 47 | 324 | 0.9 | 4.3 | 0.03 | 0.88 | 0.42 | 97 | 1006.9 |
| 20260506045003 | 47 | 69 | 1.7 | 5.2 | 0.04 | 0.88 | 0.41 | 97 | 1006.8 |
| 20260506044503 | 47 | 70 | 0.9 | 6.1 | 0.04 | 0.89 | 0.41 | 97 | 1006.8 |
| 20260506044003 | 47 | 71 | 0.9 | 6.1 | 0.05 | 0.89 | 0.41 | 97 | 1006.8 |
| 20260506043503 | 47 | 46 | 0.9 | 3.5 | 0.05 | 0.89 | 0.41 | 97 | 1006.8 |
| 20260506043003 | 46 | 50 | 0.9 | 4.3 | 0.04 | 0.89 | 0.40 | 97 | 1006.8 |
| 20260506042503 | 47 | 58 | 0.9 | 4.3 | 0.04 | 0.89 | 0.40 | 97 | 1006.7 |
| 20260506042217 | 46 | 62 | 0.9 | 5.2 | 0.04 | 0.89 | 0.40 | 97 | 1006.7 |
| 20260506041503 | 47 | 55 | 0.9 | 5.2 | 0.04 | 0.88 | 0.39 | 97 | 1006.7 |
| 20260506041217 | 47 | 52 | 0.9 | 3.5 | 0.04 | 0.88 | 0.39 | 97 | 1006.7 |
| 20260506040503 | 47 | 77 | 0.9 | 3.5 | 0.03 | 0.87 | 0.39 | 97 | 1006.7 |
| 20260506040003 | 47 | 71 | 0.9 | 3.5 | 0.03 | 0.87 | 0.38 | 97 | 1006.8 |
| 20260506035718 | 47 | 50 | 0.9 | 3.5 | 0.03 | 0.87 | 0.38 | 97 | 1006.8 |
| 20260506035004 | 47 | 350 | 0.9 | 5.2 | 0.02 | 0.86 | 0.37 | 97 | 1006.7 |
| 20260506034503 | 47 | 356 | 0.9 | 5.2 | 0.02 | 0.86 | 0.37 | 97 | 1006.8 |
| 20260506034003 | 47 | 342 | 0.9 | 4.3 | 0.02 | 0.85 | 0.36 | 97 | 1006.9 |
| 20260506033717 | 47 | 339 | 1.7 | 4.3 | 0.02 | 0.85 | 0.36 | 97 | 1006.9 |
| 20260506033003 | 47 | 33 | 0.9 | 3.5 | 0.02 | 0.85 | 0.36 | 97 | 1006.9 |
| 20260506032503 | 47 | 51 | 0.9 | 3.5 | 0.02 | 0.85 | 0.36 | 97 | 1006.9 |
| 20260506032003 | 47 | 355 | 0.9 | 3.5 | 0.03 | 0.85 | 0.36 | 97 | 1006.9 |
| 20260506031503 | 47 | 16 | 0.9 | 3.5 | 0.02 | 0.84 | 0.35 | 96 | 1007.0 |
| 20260506031003 | 47 | 52 | 1.7 | 3.5 | 0.03 | 0.84 | 0.35 | 96 | 1006.9 |
| 20260506030717 | 47 | 57 | 1.7 | 3.5 | 0.03 | 0.84 | 0.35 | 97 | 1007.0 |
| 20260506030004 | 47 | 37 | 0.9 | 3.5 | 0.02 | 0.83 | 0.35 | 97 | 1007.0 |
| 20260506025503 | 47 | 22 | 0.9 | 2.6 | 0.03 | 0.83 | 0.35 | 97 | 1007.1 |
| 20260506025003 | 47 | 13 | 0.9 | 3.5 | 0.03 | 0.83 | 0.35 | 97 | 1007.1 |
| 20260506024503 | 47 | 22 | 0.9 | 4.3 | 0.04 | 0.83 | 0.35 | 97 | 1007.2 |
| 20260506024003 | 47 | 54 | 1.7 | 4.3 | 0.04 | 0.83 | 0.35 | 97 | 1007.2 |
| 20260506023503 | 47 | 66 | 1.7 | 5.2 | 0.04 | 0.83 | 0.34 | 97 | 1007.2 |
| 20260506023003 | 47 | 70 | 1.7 | 5.2 | 0.04 | 0.83 | 0.34 | 97 | 1007.2 |
| 20260506022503 | 47 | 70 | 1.7 | 4.3 | 0.05 | 0.83 | 0.34 | 97 | 1007.2 |
| 20260506022003 | 48 | 72 | 1.7 | 4.3 | 0.05 | 0.82 | 0.33 | 97 | 1007.3 |
| 20260506021503 | 48 | 66 | 1.7 | 3.5 | 0.05 | 0.82 | 0.33 | 97 | 1007.2 |
| 20260506021218 | 48 | 67 | 1.7 | 3.5 | 0.05 | 0.81 | 0.32 | 97 | 1007.3 |
| 20260506020503 | 48 | 60 | 1.7 | 3.5 | 0.06 | 0.81 | 0.32 | 97 | 1007.3 |
| 20260506020003 | 48 | 70 | 1.7 | 3.5 | 0.06 | 0.82 | 0.32 | 97 | 1007.2 |
| 20260506015503 | 48 | 79 | 0.9 | 3.5 | 0.06 | 0.82 | 0.31 | 97 | 1007.2 |
| 20260506015003 | 48 | 79 | 0.9 | 5.2 | 0.07 | 0.83 | 0.31 | 97 | 1007.2 |
| 20260506014503 | 48 | 70 | 1.7 | 5.2 | 0.06 | 0.82 | 0.31 | 97 | 1007.3 |
| 20260506014003 | 48 | 47 | 1.7 | 7.0 | 0.07 | 0.84 | 0.31 | 97 | 1007.2 |
| 20260506013719 | 48 | 47 | 1.7 | 7.0 | 0.07 | 0.84 | 0.30 | 97 | 1007.2 |
| 20260506013218 | 48 | 62 | 1.7 | 4.3 | 0.08 | 0.85 | 0.30 | 97 | 1007.3 |
| 20260506012504 | 48 | 68 | 1.7 | 4.3 | 0.09 | 0.85 | 0.29 | 97 | 1007.3 |
| 20260506012218 | 48 | 67 | 1.7 | 5.2 | 0.09 | 0.85 | 0.29 | 97 | 1007.2 |
| 20260506011503 | 48 | 78 | 1.7 | 5.2 | 0.09 | 0.84 | 0.28 | 97 | 1007.3 |
| 20260506011003 | 48 | 79 | 0.9 | 4.3 | 0.09 | 0.83 | 0.28 | 97 | 1007.3 |
| 20260506010503 | 48 | 77 | 1.7 | 5.2 | 0.09 | 0.83 | 0.27 | 97 | 1007.3 |
| 20260506010009 | 48 | 83 | 1.7 | 5.2 | 0.09 | 0.82 | 0.26 | 97 | 1007.3 |
| 20260506005503 | 48 | 76 | 1.7 | 5.2 | 0.09 | 0.81 | 0.25 | 97 | 1007.4 |
| 20260506005003 | 48 | 70 | 1.7 | 5.2 | 0.09 | 0.80 | 0.24 | 97 | 1007.4 |
| 20260506004504 | 49 | 79 | 1.7 | 5.2 | 0.10 | 0.80 | 0.24 | 97 | 1007.4 |
| 20260506004003 | 49 | 72 | 0.9 | 5.2 | 0.10 | 0.80 | 0.24 | 97 | 1007.4 |
| 20260506003503 | 49 | 66 | 0.9 | 4.3 | 0.10 | 0.79 | 0.23 | 97 | 1007.4 |
| 20260506003009 | 49 | 57 | 0.9 | 4.3 | 0.10 | 0.78 | 0.22 | 97 | 1007.5 |
| 20260506002503 | 49 | 60 | 0.9 | 3.5 | 0.09 | 0.76 | 0.20 | 97 | 1007.5 |
| 20260506002003 | 49 | 76 | 0.9 | 3.5 | 0.09 | 0.76 | 0.20 | 97 | 1007.5 |
| 20260506001718 | 49 | 61 | 1.7 | 3.5 | 0.09 | 0.76 | 0.20 | 97 | 1007.5 |
| 20260506001003 | 49 | 28 | 0.9 | 4.3 | 0.09 | 0.74 | 0.18 | 97 | 1007.6 |
| 20260506000503 | 49 | 41 | 0.9 | 3.5 | 0.09 | 0.73 | 0.17 | 97 | 1007.6 |
| 20260506000004 | 49 | 69 | 0.9 | 3.5 | 0.09 | 0.72 | 0.17 | 97 | 1007.7 |
| 20260505235504 | 49 | 79 | 0.9 | 3.5 | 0.09 | 0.72 | 0.16 | 97 | 1007.7 |
| 20260505235003 | 49 | 78 | 1.7 | 4.3 | 0.08 | 0.71 | 0.15 | 97 | 1007.7 |
| 20260505234503 | 49 | 75 | 1.7 | 5.2 | 0.08 | 0.70 | 0.14 | 97 | 1007.8 |
| 20260505234003 | 49 | 76 | 1.7 | 7.8 | 0.08 | 0.69 | 0.13 | 97 | 1007.9 |
| 20260505233503 | 49 | 80 | 1.7 | 7.8 | 0.07 | 0.69 | 0.13 | 97 | 1007.8 |
| 20260505233008 | 49 | 71 | 1.7 | 7.0 | 0.07 | 0.68 | 0.12 | 97 | 1007.9 |
| 20260505232503 | 49 | 63 | 1.7 | 7.0 | 0.08 | 0.68 | 0.12 | 97 | 1007.8 |
| 20260505232003 | 49 | 76 | 1.7 | 6.1 | 0.08 | 0.67 | 0.11 | 97 | 1007.9 |
| 20260505231503 | 49 | 67 | 1.7 | 6.1 | 0.08 | 0.66 | 0.10 | 97 | 1007.9 |
| 20260505231003 | 49 | 64 | 1.7 | 5.2 | 0.08 | 0.65 | 0.09 | 97 | 1008.0 |
| 20260505230504 | 49 | 72 | 2.6 | 5.2 | 0.08 | 0.65 | 0.09 | 97 | 1007.9 |
| 20260505230003 | 49 | 75 | 1.7 | 5.2 | 0.08 | 0.64 | 0.08 | 97 | 1007.9 |
| 20260505225504 | 49 | 73 | 1.7 | 5.2 | 0.09 | 0.63 | 0.07 | 97 | 1008.0 |
| 20260505225003 | 49 | 79 | 1.7 | 5.2 | 0.11 | 0.63 | 0.07 | 97 | 1008.0 |